Torna al catalogo

CZ-6A DEB

AttivoSSO
NORAD 56671·DEBRIS·🇨🇳 China

Lanciato Nov 11, 2022 da Taiyuan Satellite Launch Center

Loading…

Prossimi Passaggi (prossime 24 ore)

TLE

In scadenzaSource: Space-Track

Epoca: Sep 6, 2026, 20:53 UTC

1 56671U 22151AGX 26249.87018707  .00000283  00000-0  22900-3 0  9996
2 56671  98.9260 218.0304 0121002 215.6979 143.6049 13.94758682171676

Traccia CZ-6A DEB in tempo reale con AllMySat

Download on the App Store